• Em Portugal
  • Lista de países
  • Para 7 dias
  • Temperatura da água
  • Mapas de satélite
  • Mapa do tempo
  • Widgets de tempo
  • user-avatar
    Iniciar Sessão

    Previsão horária em Afanoskovo

    Hoje, 21 Maio, Segunda-feira

    Tempo Temperatura Precipitação Vento Pressão Humidade
    00:00 +8°C° 0 mm 1 m/s 749 mmHg 72%
    01:00 +8°C° 0 mm 1 m/s 749 mmHg 72%
    02:00 +7°C° 0 mm 1 m/s 749 mmHg 76%
    03:00 +7°C° 0 mm 1 m/s 750 mmHg 76%
    04:00 +7°C° 0 mm 1 m/s 750 mmHg 75%
    05:00 +8°C° 0 mm 1 m/s 750 mmHg 75%
    06:00 +10°C° 0 mm 1 m/s 751 mmHg 68%
    07:00 +13°C° 0 mm 1 m/s 751 mmHg 61%
    08:00 +16°C° 0 mm 1 m/s 751 mmHg 53%
    09:00 +17°C° 0 mm 2 m/s 751 mmHg 49%
    10:00 +18°C° 0 mm 2 m/s 751 mmHg 44%
    11:00 +20°C° 0 mm 3 m/s 751 mmHg 40%
    12:00 +20°C° 0 mm 3 m/s 751 mmHg 39%
    13:00 +21°C° 0 mm 3 m/s 751 mmHg 39%
    14:00 +22°C° 0 mm 3 m/s 750 mmHg 38%
    15:00 +22°C° 0 mm 3 m/s 750 mmHg 40%
    16:00 +21°C° 0 mm 3 m/s 750 mmHg 42%
    17:00 +21°C° 0 mm 3 m/s 749 mmHg 45%
    18:00 +19°C° 0 mm 2 m/s 749 mmHg 54%
    19:00 +17°C° 0 mm 2 m/s 749 mmHg 63%
    20:00 +15°C° 0 mm 2 m/s 749 mmHg 72%
    21:00 +14°C° 0 mm 2 m/s 749 mmHg 75%
    22:00 +13°C° 0 mm 2 m/s 749 mmHg 77%
    23:00 +10°C° 0 mm 2 m/s 749 mmHg 80%

    Amanhã, 22 Maio, Terça-feira

    Tempo Temperatura Precipitação Vento Pressão Humidade
    00:00 +10°C° 0 mm 2 m/s 749 mmHg 80%
    01:00 +10°C° 0 mm 1 m/s 749 mmHg 81%
    02:00 +10°C° 0 mm 1 m/s 749 mmHg 81%
    03:00 +10°C° 0 mm 1 m/s 749 mmHg 81%
    04:00 +9°C° 0 mm 2 m/s 749 mmHg 81%
    05:00 +9°C° 0 mm 2 m/s 749 mmHg 81%
    06:00 +12°C° 0 mm 2 m/s 749 mmHg 74%
    07:00 +14°C° 0 mm 2 m/s 749 mmHg 68%
    08:00 +16°C° 0 mm 2 m/s 748 mmHg 61%
    09:00 +17°C° 0 mm 3 m/s 748 mmHg 56%
    10:00 +18°C° 0 mm 3 m/s 748 mmHg 52%
    11:00 +19°C° 0 mm 4 m/s 747 mmHg 47%
    12:00 +19°C° 0,1 mm 3 m/s 747 mmHg 48%
    13:00 +19°C° 0,1 mm 3 m/s 747 mmHg 49%
    14:00 +20°C° 0,1 mm 3 m/s 747 mmHg 50%
    15:00 +18°C° 0,4 mm 3 m/s 746 mmHg 62%
    16:00 +16°C° 0,4 mm 2 m/s 746 mmHg 74%
    17:00 +15°C° 0,4 mm 2 m/s 745 mmHg 86%
    18:00 +14°C° 0,1 mm 2 m/s 745 mmHg 89%
    19:00 +13°C° 0,1 mm 1 m/s 745 mmHg 92%
    20:00 +13°C° 0,1 mm 1 m/s 745 mmHg 95%
    21:00 +12°C° 0 mm 1 m/s 745 mmHg 96%
    22:00 +12°C° 0 mm 1 m/s 745 mmHg 97%
    23:00 +12°C° 0 mm 1 m/s 745 mmHg 97%

    Depois de amanhã, 23 Maio, Quarta-feira

    Tempo Temperatura Precipitação Vento Pressão Humidade
    00:00 +11°C° 0 mm 1 m/s 745 mmHg 98%
    01:00 +11°C° 0 mm 1 m/s 745 mmHg 98%
    02:00 +11°C° 0 mm 1 m/s 745 mmHg 98%
    03:00 +11°C° 0 mm 1 m/s 745 mmHg 98%
    04:00 +11°C° 0 mm 1 m/s 745 mmHg 98%
    05:00 +11°C° 0 mm 1 m/s 745 mmHg 98%
    06:00 +12°C° 0 mm 1 m/s 745 mmHg 93%
    07:00 +14°C° 0 mm 1 m/s 745 mmHg 88%
    08:00 +16°C° 0 mm 1 m/s 745 mmHg 83%
    09:00 +18°C° 0,8 mm 1 m/s 745 mmHg 79%
    10:00 +19°C° 0,8 mm 1 m/s 745 mmHg 75%
    11:00 +20°C° 0,8 mm 1 m/s 745 mmHg 71%
    12:00 +20°C° 1,7 mm 1 m/s 745 mmHg 73%
    13:00 +20°C° 1,7 mm 1 m/s 744 mmHg 75%
    14:00 +19°C° 1,7 mm 1 m/s 744 mmHg 77%
    15:00 +19°C° 0,3 mm 1 m/s 744 mmHg 75%
    16:00 +20°C° 0,3 mm 1 m/s 744 mmHg 73%
    17:00 +19°C° 0,3 mm 2 m/s 744 mmHg 72%
    18:00 +17°C° 0,3 mm 2 m/s 745 mmHg 78%
    19:00 +16°C° 0,3 mm 2 m/s 745 mmHg 85%
    20:00 +15°C° 0,3 mm 1 m/s 745 mmHg 91%
    21:00 +14°C° 0 mm 1 m/s 745 mmHg 92%
    22:00 +13°C° 0 mm 1 m/s 746 mmHg 94%
    23:00 +12°C° 0 mm 2 m/s 746 mmHg 95%

    24 Maio, Quinta-feira

    Tempo Temperatura Precipitação Vento Pressão Humidade
    00:00 +12°C° 0 mm 2 m/s 746 mmHg 95%
    01:00 +10°C° 0 mm 2 m/s 746 mmHg 96%
    02:00 +10°C° 0 mm 2 m/s 746 mmHg 96%
    03:00 +10°C° 0 mm 2 m/s 747 mmHg 95%
    04:00 +10°C° 0 mm 2 m/s 747 mmHg 94%
    05:00 +10°C° 0 mm 2 m/s 747 mmHg 94%
    06:00 +13°C° 0 mm 2 m/s 747 mmHg 87%
    07:00 +15°C° 0 mm 2 m/s 747 mmHg 81%
    08:00 +16°C° 0 mm 2 m/s 748 mmHg 74%
    09:00 +18°C° 0 mm 3 m/s 748 mmHg 66%
    10:00 +20°C° 0 mm 3 m/s 748 mmHg 59%
    11:00 +22°C° 0 mm 4 m/s 748 mmHg 51%
    12:00 +22°C° 0 mm 4 m/s 748 mmHg 49%
    13:00 +22°C° 0 mm 4 m/s 748 mmHg 48%
    14:00 +22°C° 0 mm 4 m/s 748 mmHg 46%
    15:00 +21°C° 0 mm 4 m/s 748 mmHg 49%
    16:00 +20°C° 0 mm 4 m/s 749 mmHg 51%
    17:00 +20°C° 0 mm 4 m/s 749 mmHg 54%
    18:00 +18°C° 0 mm 4 m/s 749 mmHg 61%
    19:00 +16°C° 0 mm 3 m/s 750 mmHg 68%
    20:00 +13°C° 0 mm 3 m/s 750 mmHg 75%
    21:00 +12°C° 0 mm 3 m/s 750 mmHg 76%
    22:00 +10°C° 0 mm 3 m/s 751 mmHg 77%
    23:00 +9°C° 0 mm 2 m/s 751 mmHg 78%

    25 Maio, Sexta-feira

    Tempo Temperatura Precipitação Vento Pressão Humidade
    00:00 +8°C° 0 mm 2 m/s 751 mmHg 77%
    01:00 +8°C° 0 mm 2 m/s 752 mmHg 77%
    02:00 +7°C° 0 mm 2 m/s 752 mmHg 76%
    03:00 +7°C° 0 mm 2 m/s 752 mmHg 75%
    04:00 +7°C° 0 mm 2 m/s 753 mmHg 74%
    05:00 +6°C° 0 mm 2 m/s 753 mmHg 74%
    06:00 +8°C° 0 mm 2 m/s 753 mmHg 67%
    07:00 +10°C° 0 mm 2 m/s 753 mmHg 60%
    08:00 +13°C° 0 mm 2 m/s 754 mmHg 54%
    09:00 +14°C° 0 mm 2 m/s 754 mmHg 49%
    10:00 +16°C° 0 mm 2 m/s 754 mmHg 44%
    11:00 +17°C° 0 mm 3 m/s 754 mmHg 39%
    12:00 +18°C° 0 mm 3 m/s 754 mmHg 38%
    13:00 +18°C° 0 mm 3 m/s 754 mmHg 38%
    14:00 +19°C° 0 mm 2 m/s 754 mmHg 37%
    15:00 +19°C° 0 mm 2 m/s 754 mmHg 39%
    16:00 +19°C° 0 mm 2 m/s 753 mmHg 41%
    17:00 +19°C° 0 mm 2 m/s 753 mmHg 43%
    18:00 +17°C° 0 mm 2 m/s 753 mmHg 51%
    19:00 +15°C° 0 mm 2 m/s 753 mmHg 59%
    20:00 +13°C° 0 mm 1 m/s 753 mmHg 67%
    21:00 +12°C° 0 mm 1 m/s 754 mmHg 68%
    22:00 +11°C° 0 mm 1 m/s 754 mmHg 70%
    23:00 +10°C° 0 mm 1 m/s 754 mmHg 71%

    26 Maio, Sábado

    Tempo Temperatura Precipitação Vento Pressão Humidade
    00:00 +10°C° 0 mm 1 m/s 755 mmHg 72%
    01:00 +9°C° 0 mm 1 m/s 755 mmHg 73%
    02:00 +9°C° 0 mm 1 m/s 755 mmHg 74%
    03:00 +9°C° 0 mm 1 m/s 755 mmHg 74%
    04:00 +9°C° 0 mm 1 m/s 756 mmHg 74%
    05:00 +9°C° 0 mm 1 m/s 756 mmHg 74%
    06:00 +12°C° 0 mm 2 m/s 756 mmHg 66%
    07:00 +14°C° 0 mm 2 m/s 756 mmHg 58%
    08:00 +16°C° 0 mm 2 m/s 756 mmHg 51%
    09:00 +17°C° 0 mm 2 m/s 756 mmHg 47%
    10:00 +18°C° 0 mm 2 m/s 756 mmHg 43%
    11:00 +20°C° 0 mm 2 m/s 756 mmHg 39%
    12:00 +20°C° 0 mm 2 m/s 756 mmHg 38%
    13:00 +21°C° 0 mm 2 m/s 756 mmHg 38%
    14:00 +21°C° 0 mm 2 m/s 755 mmHg 38%
    15:00 +21°C° 0 mm 2 m/s 755 mmHg 40%
    16:00 +21°C° 0 mm 2 m/s 755 mmHg 43%
    17:00 +21°C° 0 mm 2 m/s 754 mmHg 45%
    18:00 +19°C° 0 mm 2 m/s 754 mmHg 54%
    19:00 +17°C° 0 mm 2 m/s 754 mmHg 62%
    20:00 +15°C° 0 mm 2 m/s 754 mmHg 71%
    21:00 +14°C° 0 mm 2 m/s 754 mmHg 74%
    22:00 +13°C° 0 mm 2 m/s 754 mmHg 77%
    23:00 +12°C° 0 mm 2 m/s 754 mmHg 80%
    Mostrar mais